This demonstration page uses our WeatherBlox Daily Observations layout. Learn more.

Left ArrowRight Arrow

39.01783, -85.05884

Hourly Observations for June 27, 2022

Temp ( °F °C ) Dew Point ( °F °C ) Humidity (%) Winds ( mph kmh ) Pressure ( in mb ) Visibility ( mi km ) Precip ( " mm )
12:52 am 00:52 Mostly Clear 72 22.2 63 17.2 73 73 NW 13 20 30.07 1018 10 16 0.00 0.00
1:52 am 01:52 Partly Cloudy 70 21.1 58 14.4 66 66 NNW 9 15 30.06 1018 10 16 0.00 0.00
2:52 am 02:52 Mostly Clear 68 20 58 14.4 70 70 NW 7 11 30.07 1018 10 16 0.00 0.00
3:52 am 03:52 Mostly Clear 66 18.9 57 13.9 73 73 NNW 6 9 30.08 1019 10 16 0.00 0.00
4:52 am 04:52 Mostly Clear 66 18.9 57 13.9 73 73 NW 5 7 30.09 1019 10 16 0.00 0.00
5:52 am 05:52 Mostly Clear 62 16.7 57 13.9 84 84 NW 6 9 30.11 1020 10 16 0.00 0.00
6:52 am 06:52 Mostly Sunny 63 17.2 58 14.4 84 84 NNW 8 13 30.13 1020 10 16 0.00 0.00
7:52 am 07:52 Mostly Sunny 65 18.3 58 14.4 78 78 N 8 13 30.15 1021 10 16 0.00 0.00
8:52 am 08:52 Mostly Sunny 69 20.6 55 12.8 61 61 N 13 20 30.17 1022 10 16 0.00 0.00
9:52 am 09:52 Mostly Sunny 72 22.2 50 10 46 46 N 14 22 30.19 1022 10 16 0.00 0.00
10:52 am 10:52 Mostly Sunny 74 23.3 49 9.4 41 41 NE 9 15 30.19 1022 10 16 0.00 0.00
11:52 am 11:52 Mostly Sunny 75 23.9 51 10.6 43 43 NNW 8 13 30.19 1022 10 16 0.00 0.00
12:52 pm 12:52 Mostly Sunny 77 25 51 10.6 40 40 NE 6 9 30.19 1022 10 16 0.00 0.00
1:52 pm 13:52 Mostly Sunny 77 25 50 10 39 39 NNE 9 15 30.18 1022 10 16 0.00 0.00
2:52 pm 14:52 Mostly Sunny 79 26.1 51 10.6 38 38 N 8 13 30.16 1021 10 16 0.00 0.00
3:52 pm 15:52 Mostly Sunny 79 26.1 52 11.1 39 39 NW 8 13 30.15 1021 10 16 0.00 0.00
4:52 pm 16:52 Mostly Sunny 80 26.7 52 11.1 38 38 NW 8 13 30.14 1021 10 16 0.00 0.00
5:52 pm 17:52 Mostly Sunny 79 26.1 51 10.6 38 38 NW 9 15 30.13 1020 10 16 0.00 0.00
6:52 pm 18:52 Mostly Sunny 79 26.1 49 9.4 35 35 N 13 20 30.12 1020 10 16 0.00 0.00
7:52 pm 19:52 Mostly Sunny 77 25 49 9.4 37 37 N 10 17 30.13 1020 10 16 0.00 0.00
8:52 pm 20:52 Mostly Sunny 73 22.8 50 10 44 44 NNW 9 15 30.14 1021 10 16 0.00 0.00
9:52 pm 21:52 Mostly Clear 71 21.7 48 8.9 44 44 NNW 8 13 30.16 1021 10 16 0.00 0.00
10:52 pm 22:52 Clear 69 20.6 48 8.9 47 47 N 8 13 30.18 1022 10 16 0.00 0.00
11:52 pm 23:52 Clear 66 18.9 45 7.2 47 47 N 9 15 30.20 1023 10 16 0.00 0.00

Powered by AerisWeather